[[{"header":{"parameterUnit":"m.s-1","parameterCategory":1,"la1":30.2991,"la2":30.254,"lo1":-89.0895,"lo2":-89.0444,"dy":0.0017,"dx":0.0017,"nx":28,"ny":28,"refTime":"2025-08-29T09:00:00:Z","depth":0,"parameterNumber":2,"parameterNumberName":"U-component_of_WINDS"},"data":[0,0,0,0,0,0,0,0,0,0,0,0,0,0,0,0,0,0,0,0,0,0,0,0,0,0,0,0,0,0,0,0,0,0,0,0,0,0,0,0,0,0,0,0,0,0,0,0,0,0,0,0,0,0,0,0,0,0,-2.1889,-2.1888,0,-2.1824,-2.1823,-2.1822,-2.1725,-2.1723,-2.1722,-2.172,-2.1656,-2.1656,-2.1656,0,0,0,0,0,0,0,0,0,0,0,0,0,-2.193,-2.1929,-2.1889,-2.1888,-2.1887,-2.1824,-2.1823,-2.1822,-2.1726,-2.1723,-2.1721,-2.1719,-2.1657,-2.1656,-2.1656,0,0,0,0,0,0,0,0,0,0,0,0,0,-2.1893,-2.1929,-2.1889,-2.1831,-2.1825,-2.1824,-2.1823,-2.1822,-2.1726,-2.1723,-2.1721,-2.1718,-2.1657,-2.1656,-2.1656,-2.1707,0,0,-2.1656,-2.1656,0,0,0,0,0,0,0,0,-2.1895,-2.1892,-2.184,-2.1835,-2.1829,-2.178,-2.1814,-2.1784,-2.1727,-2.1764,-2.172,-2.1717,-2.17,-2.1696,-2.169,-2.1704,-2.1701,-2.1656,-2.1656,-2.1656,-2.1656,0,0,0,0,0,0,0,-2.1898,-2.1894,-2.1863,-2.184,-2.1833,-2.1809,-2.1801,-2.1808,-2.1747,-2.176,-2.1753,-2.1747,-2.1696,-2.169,-2.1687,-2.1701,-2.1656,-2.1656,-2.1656,-2.1656,-2.1752,-2.1754,0,0,0,0,0,0,-2.1909,-2.1897,-2.1865,-2.1861,-2.1856,-2.181,-2.1801,-2.1798,-2.1747,-2.1736,-2.1749,-2.1742,-2.1691,-2.1688,-2.1685,-2.174,-2.1656,-2.1656,-2.1656,-2.1749,-2.1752,-2.1755,0,0,0,0,0,0,-2.191,-2.1907,-2.1868,-2.1877,-2.187,-2.1812,-2.181,-2.1798,-2.1792,-2.1738,-2.1727,-2.1754,-2.1689,-2.1685,-2.1702,-2.1736,-2.1656,-2.1655,-2.1746,-2.175,-2.1754,-2.1852,0,0,0,0,0,0,-2.1912,-2.1908,-2.1927,-2.1878,-2.187,-2.1886,-2.1812,-2.1799,-2.1792,-2.1783,-2.174,-2.173,-2.1687,-2.1702,-2.1702,-2.1735,-2.1655,-2.1743,-2.1748,-2.1752,-2.1845,-2.1859,-2.187,0,0,0,0,0,-2.1914,-2.1958,-2.1928,-2.1925,-2.1892,-2.1888,-2.1884,-2.1832,-2.1795,-2.1813,-2.1778,-2.1732,-2.1733,-2.1705,-2.1703,-2.1737,-2.174,-2.1746,-2.1752,-2.184,-2.1856,-2.187,0,0,0,0,0,0,-2.2014,-2.1951,-2.1917,-2.1947,-2.1923,-2.1872,-2.1894,-2.1851,-2.1839,-2.1831,-2.1768,-2.1759,-2.1784,-2.1762,-2.1732,-2.1782,-2.1729,-2.1735,-2.1796,-2.1811,-2.1824,-2.1829,-2.1655,0,0,0,0,0,-2.2039,-2.2041,-2.1985,-2.2017,-2.2007,-2.1953,-2.1949,-2.1911,-2.1885,-2.1875,-2.1841,-2.1818,-2.1812,-2.181,-2.1803,-2.1841,-2.183,-2.1863,-2.1876,-2.1886,-2.1892,-2.1909,-2.1923,-2.1775,-2.1775,-2.1774,0,0,-2.2092,-2.2058,-2.2063,-2.2036,-2.2014,-2.2017,-2.1945,-2.1952,-2.1953,-2.1876,-2.1889,-2.1864,-2.1833,-2.1861,-2.1871,-2.1843,-2.193,-2.1894,-2.1902,-2.1903,-2.1917,-2.1931,-2.1944,-2.1779,-2.1778,-2.1777,0,0,-2.219,-2.2164,-2.2187,-2.2165,-2.2131,-2.2094,-2.21,-2.2054,-2.2034,-2.2046,-2.1987,-2.1988,-2.1981,-2.1961,-2.1951,-2.2039,-2.1995,-2.2038,-2.2103,-2.2121,-2.2133,-2.2143,-2.2174,-2.2186,-2.2044,-2.2044,-2.2044,0,-2.226,-2.2262,-2.2205,-2.2214,-2.2204,-2.2132,-2.2155,-2.2137,-2.2103,-2.2098,-2.2066,-2.2054,-2.2029,-2.205,-2.2071,-2.2065,-2.2069,-2.2043,-2.2135,-2.2145,-2.2153,-2.2182,-2.2194,-2.205,-2.2049,-2.2048,-2.2048,0,-2.235,-2.2352,-2.2375,-2.2342,-2.2334,-2.2351,-2.2296,-2.2295,-2.2257,-2.2223,-2.2236,-2.2202,-2.2186,-2.2188,-2.2152,-2.2204,-2.2187,-2.2147,-2.2092,-2.2174,-2.22,-2.2211,-2.2057,-2.2055,-2.2054,-2.2052,0,0,-2.2512,-2.2445,-2.2454,-2.2438,-2.2394,-2.2395,-2.2407,-2.239,-2.239,-2.2368,-2.2377,-2.2372,-2.2333,-2.2321,-2.2281,-2.2297,-2.2368,-2.2253,-2.2252,-2.2276,-2.2422,-2.2453,-2.2467,-2.2338,-2.2339,-2.2341,-2.2424,0,-2.2601,-2.2619,-2.2566,-2.2597,-2.2598,-2.2528,-2.2539,-2.2513,-2.2481,-2.2477,-2.2442,-2.2439,-2.2388,-2.238,-2.2392,-2.2357,-2.2396,-2.235,-2.2346,-2.2346,-2.2356,-2.248,-2.2514,-2.2594,-2.2434,-2.2436,-2.2437,0,-2.2709,-2.2691,-2.2722,-2.2674,-2.2673,-2.2683,-2.2662,-2.2659,-2.2628,-2.2604,-2.2589,-2.2543,-2.2551,-2.2498,-2.2509,-2.2478,-2.2473,-2.2455,-2.2457,-2.2455,-2.2397,-2.2482,-2.2619,-2.2631,-2.2452,-2.2451,-2.245,0,-2.2824,-2.2807,-2.2823,-2.2811,-2.2756,-2.2765,-2.2743,-2.2709,-2.2701,-2.2683,-2.2677,-2.2661,-2.2652,-2.264,-2.259,-2.2556,-2.2606,-2.2549,-2.2586,-2.2588,-2.2601,-2.2601,-2.2739,-2.2598,-2.2597,-2.2597,-2.2597,0,-2.293,-2.2952,-2.2874,-2.2884,-2.2905,-2.2844,-2.2867,-2.2838,-2.2808,-2.281,-2.2749,-2.2753,-2.2686,-2.2683,-2.2644,-2.2658,-2.2655,-2.2635,-2.2625,-2.2641,-2.2644,-2.2638,-2.2631,-2.26,-2.26,-2.2599,-2.2598,0,-2.3063,-2.3012,-2.3024,-2.297,-2.2957,-2.2975,-2.2929,-2.2936,-2.2899,-2.2903,-2.2901,-2.2843,-2.2836,-2.2784,-2.2765,-2.2739,-2.2768,-2.2746,-2.2778,-2.2771,-2.2812,-2.2809,-2.2951,-2.2966,-2.2815,-2.2816,-2.2818,0,-2.3135,-2.3149,-2.3096,-2.3093,-2.3073,-2.3069,-2.306,-2.3,-2.2993,-2.2957,-2.2968,-2.2955,-2.2942,-2.2933,-2.289,-2.2874,-2.2852,-2.2903,-2.285,-2.2865,-2.2853,-2.2853,-2.2854,-2.2915,-2.2917,-2.2918,-2.292,0,-2.3267,-2.324,-2.323,-2.321,-2.3201,-2.3182,-2.316,-2.3161,-2.3094,-2.309,-2.308,-2.307,-2.3049,-2.3037,-2.3014,-2.299,-2.2944,-2.2936,-2.2944,-2.2962,-2.298,-2.297,-2.281,-2.2934,-2.2932,-2.2931,-2.2931,-2.293,-2.3372,-2.3381,-2.3344,-2.3334,-2.331,-2.3291,-2.3294,-2.3256,-2.3247,-2.3225,-2.319,-2.3185,-2.3151,-2.3115,-2.3095,-2.3091,-2.3064,-2.3076,-2.3079,-2.3083,-2.3091,-2.2979,-2.3086,-2.3086,-2.3085,-2.3085,-2.3085,0,-2.3501,-2.3473,-2.3464,-2.3434,-2.3426,-2.3381,-2.3354,-2.335,-2.3346,-2.3318,-2.3305,-2.3294,-2.3281,-2.3236,-2.3218,-2.3223,-2.3201,-2.3221,-2.322,-2.3215,-2.3116,-2.3111,-2.3239,-2.3238,-2.3238,-2.3238,-2.3238,-2.3238,-2.3568,-2.358,-2.3549,-2.3549,-2.3521,-2.3515,-2.3503,-2.3484,-2.3461,-2.3451,-2.3439,-2.3409,-2.3374,-2.3353,-2.3339,-2.3326,-2.3322,-2.3349,-2.3329,-2.3237,-2.3223,-2.3209,-2.3203,-2.3348,-2.3348,-2.3428,-2.3429,-2.343]},{"header":{"parameterUnit":"m.s-1","parameterCategory":1,"la1":30.2991,"la2":30.254,"lo1":-89.0895,"lo2":-89.0444,"dy":0.0017,"dx":0.0017,"nx":28,"ny":28,"refTime":"2025-08-29T09:00:00:Z","depth":0,"parameterNumber":3,"parameterNumberName":"V-component_of_WINDS"},"data":[0,0,0,0,0,0,0,0,0,0,0,0,0,0,0,0,0,0,0,0,0,0,0,0,0,0,0,0,0,0,0,0,0,0,0,0,0,0,0,0,0,0,0,0,0,0,0,0,0,0,0,0,0,0,0,0,0,0,-3.7182,-3.7182,0,-3.718,-3.718,-3.718,-3.7109,-3.7107,-3.7105,-3.7103,-3.7101,-3.7103,-3.7104,0,0,0,0,0,0,0,0,0,0,0,0,0,-3.7125,-3.7126,-3.7182,-3.7182,-3.7182,-3.718,-3.718,-3.718,-3.7109,-3.7107,-3.7105,-3.7102,-3.7101,-3.7102,-3.7104,0,0,0,0,0,0,0,0,0,0,0,0,0,-3.7139,-3.7127,-3.7182,-3.7147,-3.7143,-3.718,-3.718,-3.718,-3.711,-3.7107,-3.7104,-3.7101,-3.71,-3.7102,-3.7105,-3.7175,0,0,-3.7112,-3.7113,0,0,0,0,0,0,0,0,-3.7138,-3.7141,-3.7152,-3.7149,-3.7146,-3.7142,-3.7159,-3.7178,-3.711,-3.7122,-3.7103,-3.71,-3.7117,-3.7118,-3.7123,-3.7175,-3.7175,-3.7113,-3.7114,-3.7115,-3.7116,0,0,0,0,0,0,0,-3.7137,-3.7141,-3.7181,-3.7152,-3.7148,-3.713,-3.7129,-3.7162,-3.7135,-3.7121,-3.7116,-3.7117,-3.7115,-3.7121,-3.7123,-3.7175,-3.7112,-3.7115,-3.7116,-3.7117,-3.7284,-3.7287,0,0,0,0,0,0,-3.7141,-3.714,-3.7181,-3.7181,-3.7135,-3.7134,-3.7133,-3.7146,-3.7135,-3.713,-3.7119,-3.7113,-3.7118,-3.712,-3.7123,-3.7204,-3.7115,-3.7117,-3.7119,-3.7281,-3.7284,-3.7288,0,0,0,0,0,0,-3.714,-3.7146,-3.7181,-3.7159,-3.7163,-3.7138,-3.7153,-3.7147,-3.7154,-3.7133,-3.7128,-3.7131,-3.7116,-3.7119,-3.7162,-3.7203,-3.7119,-3.7121,-3.7277,-3.7282,-3.7286,-3.7367,0,0,0,0,0,0,-3.7139,-3.7146,-3.7172,-3.7161,-3.7164,-3.7222,-3.7156,-3.7149,-3.7158,-3.7151,-3.7143,-3.7139,-3.7114,-3.7159,-3.7165,-3.7205,-3.7123,-3.7274,-3.7279,-3.7285,-3.7361,-3.7374,-3.7385,0,0,0,0,0,-3.7137,-3.7196,-3.7174,-3.718,-3.7197,-3.7224,-3.7226,-3.7197,-3.7162,-3.7188,-3.7175,-3.7139,-3.7198,-3.7164,-3.717,-3.7211,-3.7271,-3.7278,-3.7284,-3.7356,-3.7371,-3.7385,0,0,0,0,0,0,-3.7213,-3.7193,-3.7169,-3.7226,-3.7227,-3.7212,-3.7245,-3.7215,-3.7227,-3.7219,-3.7182,-3.7181,-3.723,-3.7225,-3.7188,-3.7278,-3.7228,-3.7236,-3.728,-3.7295,-3.7307,-3.7307,-3.7125,0,0,0,0,0,-3.7236,-3.726,-3.7242,-3.7293,-3.7295,-3.727,-3.7281,-3.7258,-3.7258,-3.7259,-3.7248,-3.725,-3.7268,-3.7281,-3.7297,-3.736,-3.7357,-3.7391,-3.7403,-3.7413,-3.742,-3.7452,-3.7467,-3.7309,-3.7309,-3.7309,0,0,-3.7285,-3.7277,-3.7294,-3.7309,-3.7307,-3.7332,-3.7271,-3.7301,-3.7319,-3.7263,-3.7303,-3.7296,-3.7295,-3.7348,-3.7371,-3.7345,-3.7463,-3.7421,-3.743,-3.7431,-3.7461,-3.7475,-3.7489,-3.7314,-3.7313,-3.7312,0,0,-3.7386,-3.7383,-3.7425,-3.7424,-3.7423,-3.7406,-3.7416,-3.7405,-3.7398,-3.7438,-3.7396,-3.7418,-3.7451,-3.7451,-3.7456,-3.7557,-3.7524,-3.7563,-3.7626,-3.7658,-3.767,-3.7681,-3.7716,-3.7729,-3.7571,-3.7571,-3.7571,0,-3.7446,-3.7483,-3.745,-3.7482,-3.749,-3.744,-3.7482,-3.7483,-3.7487,-3.7493,-3.7464,-3.7504,-3.75,-3.7552,-3.7577,-3.7583,-3.7593,-3.7564,-3.7671,-3.7681,-3.7691,-3.7724,-3.7738,-3.7576,-3.7575,-3.7575,-3.7574,0,-3.7556,-3.7583,-3.7617,-3.7621,-3.7632,-3.767,-3.7642,-3.7658,-3.7634,-3.762,-3.7661,-3.7654,-3.7667,-3.7678,-3.7656,-3.7727,-3.7711,-3.7677,-3.7626,-3.7711,-3.7742,-3.7755,-3.7582,-3.7581,-3.7579,-3.7578,0,0,-3.7705,-3.7691,-3.7704,-3.7705,-3.77,-3.7719,-3.7754,-3.7767,-3.778,-3.7784,-3.7812,-3.7841,-3.7809,-3.7815,-3.7792,-3.782,-3.7899,-3.7782,-3.7781,-3.7803,-3.7977,-3.8002,-3.8017,-3.7877,-3.788,-3.7882,-3.7977,0,-3.7802,-3.786,-3.7832,-3.7894,-3.7917,-3.787,-3.79,-3.79,-3.7887,-3.7905,-3.7891,-3.7912,-3.7869,-3.7872,-3.7897,-3.7884,-3.7933,-3.7877,-3.7902,-3.7904,-3.7904,-3.8033,-3.806,-3.815,-3.7989,-3.7991,-3.7992,0,-3.7923,-3.7932,-3.7996,-3.7985,-3.7994,-3.8021,-3.8031,-3.8048,-3.8047,-3.8036,-3.8042,-3.8012,-3.8045,-3.7995,-3.8039,-3.8002,-3.801,-3.8005,-3.8008,-3.8009,-3.7953,-3.8037,-3.8178,-3.8192,-3.8011,-3.8009,-3.8008,0,-3.8024,-3.8052,-3.8094,-3.8096,-3.8085,-3.8106,-3.8102,-3.8098,-3.8107,-3.8115,-3.8121,-3.8133,-3.814,-3.815,-3.8124,-3.809,-3.8172,-3.8119,-3.8163,-3.8164,-3.8182,-3.8182,-3.8327,-3.819,-3.8189,-3.8189,-3.8189,0,-3.8135,-3.8176,-3.8139,-3.8164,-3.8208,-3.8175,-3.822,-3.8211,-3.8208,-3.8231,-3.8191,-3.8213,-3.8178,-3.8197,-3.8177,-3.8217,-3.822,-3.8212,-3.8206,-3.8215,-3.8216,-3.822,-3.8213,-3.8193,-3.8192,-3.8191,-3.8191,0,-3.8255,-3.8232,-3.8274,-3.826,-3.8258,-3.8291,-3.8278,-3.8301,-3.8286,-3.8316,-3.8321,-3.8297,-3.8317,-3.8292,-3.831,-3.8297,-3.8351,-3.8336,-3.8351,-3.8347,-3.8392,-3.8388,-3.8544,-3.8563,-3.8415,-3.8416,-3.8417,0,-3.8327,-3.8357,-3.8346,-3.8358,-3.8357,-3.8378,-3.8387,-3.8355,-3.8367,-3.8367,-3.839,-3.8407,-3.8418,-3.8452,-3.8437,-3.845,-3.8435,-3.8489,-3.8437,-3.8445,-3.8435,-3.8433,-3.8436,-3.8499,-3.8501,-3.8503,-3.8504,0,-3.8457,-3.8444,-3.8459,-3.847,-3.8482,-3.8489,-3.8493,-3.8505,-3.8473,-3.8487,-3.8507,-3.8516,-3.8534,-3.8551,-3.856,-3.8556,-3.8525,-3.852,-3.8531,-3.8541,-3.8548,-3.8544,-3.838,-3.8517,-3.8516,-3.8515,-3.8514,-3.8513,-3.8554,-3.8579,-3.8575,-3.8592,-3.8592,-3.8597,-3.8617,-3.8605,-3.8621,-3.8633,-3.8613,-3.8638,-3.8636,-3.8644,-3.8644,-3.8663,-3.864,-3.8656,-3.866,-3.8664,-3.867,-3.8546,-3.8665,-3.8664,-3.8664,-3.8664,-3.8663,0,-3.8681,-3.8676,-3.8693,-3.87,-3.8714,-3.8683,-3.8686,-3.8699,-3.8722,-3.8722,-3.8734,-3.8757,-3.8773,-3.8758,-3.8772,-3.879,-3.8775,-3.8794,-3.8792,-3.8792,-3.8691,-3.868,-3.8805,-3.8805,-3.8805,-3.8805,-3.8805,-3.8805,-3.8749,-3.8788,-3.8775,-3.8814,-3.8808,-3.8832,-3.8836,-3.884,-3.884,-3.8867,-3.888,-3.8871,-3.8865,-3.8877,-3.8891,-3.8886,-3.8893,-3.8916,-3.8907,-3.8813,-3.8799,-3.8785,-3.8775,-3.8918,-3.8918,-3.9006,-3.9007,-3.9007]}]]